{"data":{"norad_id":44062,"intl_designator":"2019-010F","name":"ONEWEB-0011","alt_names":[],"object_type":"PAYLOAD","status":"ACTIVE","operator":null,"country":"UK","launch_date":"2019-02-27","launch_site_code":"FRGUI","launch_vehicle":null,"mission":null,"orbit_class":"UNKNOWN","rcs_meters":null,"size_class":null,"mass_kg":null,"dimensions":null,"purposes":["comms"],"wikipedia_slug":null,"has_3d_model":false,"image_url":null,"decayed_at":null,"tle_current":{"epoch":"2026-09-19T22:14:20.090688Z","epoch_age_seconds":67882,"freshness":"FRESH","line1":"1 44062U 19010F   26262.92662142  .00000127  00000+0  30455-3 0  9996","line2":"2 44062  87.8997 240.3132 0001778  82.7170 277.4163 13.15549280363874","mean_motion":13.1554928,"eccentricity":0.0001778,"inclination_deg":87.8997,"raan_deg":240.3132,"arg_perigee_deg":82.717,"mean_anomaly_deg":277.4163,"bstar":0.00030455,"rev_number":36387,"period_min":109.45998161316,"perigee_km":1200.4202562917,"apogee_km":1203.1156704967,"semimajor_km":7579.9049633942,"source":"CELESTRAK","updated_at":"2026-09-20T09:00:44.544357Z"}}}